DLH861 LDSP-EDDM

Flight info

Callsign DLH861
Flight time 1h 0m
Altitude 38000
Route LDSP/05 N0458F380 ZDA1W ZDA DCT ROPUS DCT RASTA DCT REDBU Q112 NAPSA NAPS1B EDDM/26R
Aircraft A338/J-V/N

Departure

Time 2026-05-06 21:21
Airport Split Saint Jerome Airport (LDSP)

Arrival

Time 2026-05-06 22:21
Airport Munich Airport (EDDM)
Time Latitude Longitude Altitude Speed Heading
2026-05-06 20:53 43.53835 16.30032 81 ft 0 kts 115°
2026-05-06 21:09 43.53847 16.30018 86 ft 2 kts 152°
2026-05-06 21:09 43.53863 16.30017 82 ft 2 kts 186°
2026-05-06 21:09 43.53879 16.30024 84 ft 2 kts 204°
2026-05-06 21:10 43.53891 16.30036 84 ft 1 kts 218°
2026-05-06 21:10 43.53894 16.30039 85 ft 0 kts 221°
2026-05-06 21:12 43.53893 16.30038 85 ft 1 kts 221°
2026-05-06 21:12 43.53880 16.30018 85 ft 4 kts 239°
2026-05-06 21:13 43.53853 16.29964 85 ft 9 kts 234°
2026-05-06 21:13 43.53807 16.29879 88 ft 13 kts 233°
2026-05-06 21:13 43.53742 16.29763 91 ft 18 kts 232°
2026-05-06 21:13 43.53703 16.29620 91 ft 15 kts 269°
2026-05-06 21:14 43.53692 16.29463 93 ft 19 kts 257°
2026-05-06 21:14 43.53621 16.29306 96 ft 21 kts 230°
2026-05-06 21:14 43.53526 16.29135 95 ft 24 kts 234°
2026-05-06 21:14 43.53422 16.28949 94 ft 26 kts 233°
2026-05-06 21:15 43.53308 16.28741 94 ft 28 kts 233°
2026-05-06 21:15 43.53172 16.28615 91 ft 14 kts 220°
2026-05-06 21:15 43.53161 16.28579 90 ft 1 kts 301°
2026-05-06 21:15 43.53164 16.28573 91 ft 4 kts 310°
2026-05-06 21:16 43.53173 16.28564 92 ft 2 kts 342°
2026-05-06 21:16 43.53181 16.28563 91 ft 1 kts 13°
2026-05-06 21:16 43.53199 16.28575 92 ft 5 kts 36°
2026-05-06 21:16 43.53238 16.28621 92 ft 9 kts 49°
2026-05-06 21:17 43.53244 16.28631 92 ft 0 kts 51°
2026-05-06 21:17 43.53246 16.28636 92 ft 0 kts 51°
2026-05-06 21:20 43.53247 16.28636 92 ft 1 kts 51°
2026-05-06 21:20 43.53298 16.28726 92 ft 50 kts 51°
2026-05-06 21:20 43.53728 16.29497 93 ft 144 kts 52°
2026-05-06 21:21 43.54435 16.30754 372 ft 174 kts 55°
2026-05-06 21:21 43.55211 16.32055 1152 ft 178 kts 53°
2026-05-06 21:21 43.56040 16.33331 1933 ft 180 kts 52°
2026-05-06 21:21 43.57050 16.34492 2287 ft 202 kts 45°
2026-05-06 21:22 43.58212 16.35769 2525 ft 218 kts 44°
2026-05-06 21:22 43.59468 16.37176 2817 ft 242 kts 45°
2026-05-06 21:22 43.60803 16.38702 3342 ft 266 kts 44°
2026-05-06 21:22 43.62261 16.40377 4127 ft 277 kts 44°
2026-05-06 21:23 43.63740 16.42148 4994 ft 285 kts 44°
2026-05-06 21:23 43.65223 16.43991 6030 ft 287 kts 44°
2026-05-06 21:23 43.66700 16.45874 6971 ft 292 kts 44°
2026-05-06 21:23 43.68190 16.47815 7946 ft 294 kts 45°
2026-05-06 21:24 43.69499 16.49986 8837 ft 298 kts 64°
2026-05-06 21:24 43.70055 16.52688 9819 ft 298 kts 89°
2026-05-06 21:24 43.69758 16.55515 10544 ft 305 kts 113°
2026-05-06 21:24 43.68649 16.58094 10858 ft 322 kts 131°
2026-05-06 21:25 43.67471 16.60837 11168 ft 347 kts 111°
2026-05-06 21:25 43.67110 16.64180 11933 ft 357 kts 89°
2026-05-06 21:25 43.67640 16.67551 12670 ft 366 kts 68°
2026-05-06 21:25 43.69095 16.70635 13481 ft 371 kts 45°
2026-05-06 21:26 43.71168 16.72754 14246 ft 373 kts 25°
2026-05-06 21:26 43.73642 16.73797 14960 ft 373 kts
2026-05-06 21:26 43.76220 16.73650 15645 ft 372 kts 345°
2026-05-06 21:26 43.78585 16.72364 16337 ft 371 kts 325°
2026-05-06 21:27 43.80535 16.70068 17026 ft 369 kts 307°
2026-05-06 21:27 43.81843 16.67028 17702 ft 367 kts 289°
2026-05-06 21:27 43.82814 16.63738 18315 ft 374 kts 293°
2026-05-06 21:27 43.84183 16.60648 18950 ft 380 kts 304°
2026-05-06 21:28 43.85974 16.57924 19557 ft 386 kts 313°
2026-05-06 21:28 43.88025 16.55480 20093 ft 392 kts 318°
2026-05-06 21:28 43.90213 16.53170 20687 ft 395 kts 320°
2026-05-06 21:28 43.92439 16.50917 21267 ft 398 kts 321°
2026-05-06 21:29 43.94694 16.48647 21832 ft 401 kts 321°
2026-05-06 21:29 43.96932 16.46384 22424 ft 404 kts 321°
2026-05-06 21:29 43.99214 16.44063 22981 ft 407 kts 321°
2026-05-06 21:29 44.01510 16.41720 23555 ft 410 kts 321°
2026-05-06 21:30 44.03818 16.39359 24024 ft 413 kts 320°
2026-05-06 21:30 44.06143 16.36979 24500 ft 416 kts 320°
2026-05-06 21:30 44.08485 16.34576 24980 ft 419 kts 320°
2026-05-06 21:30 44.10836 16.32162 25447 ft 422 kts 320°
2026-05-06 21:31 44.13212 16.29720 25954 ft 425 kts 319°
2026-05-06 21:31 44.15606 16.27254 26449 ft 429 kts 319°
2026-05-06 21:31 44.17980 16.24807 26979 ft 432 kts 319°
2026-05-06 21:31 44.20413 16.22298 27419 ft 437 kts 319°
2026-05-06 21:32 44.22863 16.19769 28005 ft 440 kts 319°
2026-05-06 21:32 44.27829 16.14639 29045 ft 448 kts 318°
2026-05-06 21:32 44.30348 16.12032 29571 ft 452 kts 318°
2026-05-06 21:33 44.32893 16.09391 30087 ft 457 kts 318°
2026-05-06 21:33 44.35455 16.06732 30612 ft 460 kts 318°
2026-05-06 21:33 44.38025 16.04066 31253 ft 461 kts 317°
2026-05-06 21:33 44.40610 16.01378 31782 ft 463 kts 317°
2026-05-06 21:34 44.43173 15.98710 32321 ft 466 kts 317°
2026-05-06 21:34 44.45812 15.95957 32846 ft 468 kts 316°
2026-05-06 21:34 44.48403 15.93251 33340 ft 471 kts 316°
2026-05-06 21:34 44.51039 15.90498 33851 ft 474 kts 316°
2026-05-06 21:35 44.53693 15.87721 34297 ft 477 kts 316°
2026-05-06 21:35 44.56363 15.84925 34764 ft 479 kts 316°
2026-05-06 21:35 44.59039 15.82121 35322 ft 479 kts 317°
2026-05-06 21:35 44.61676 15.79357 35957 ft 477 kts 317°
2026-05-06 21:36 44.64358 15.76541 36643 ft 474 kts 317°
2026-05-06 21:36 44.66961 15.73805 37273 ft 472 kts 317°
2026-05-06 21:36 44.69584 15.71042 37885 ft 471 kts 317°
2026-05-06 21:36 44.72222 15.68255 37992 ft 474 kts 317°
2026-05-06 21:37 44.77456 15.62728 37989 ft 470 kts 317°
2026-05-06 21:37 44.82704 15.57167 37986 ft 472 kts 317°
2026-05-06 21:38 44.87955 15.51595 37984 ft 472 kts 317°
2026-05-06 21:38 44.93201 15.46016 37986 ft 472 kts 317°
2026-05-06 21:39 44.98433 15.40436 37967 ft 472 kts 317°
2026-05-06 21:39 45.03643 15.34871 37954 ft 471 kts 317°
2026-05-06 21:40 45.08871 15.29269 37950 ft 472 kts 317°
2026-05-06 21:40 45.14108 15.23642 37941 ft 472 kts 317°
2026-05-06 21:41 45.19347 15.18002 37945 ft 473 kts 317°
2026-05-06 21:41 45.24597 15.12337 37935 ft 474 kts 317°
2026-05-06 21:42 45.29816 15.06692 37927 ft 474 kts 317°
2026-05-06 21:42 45.35074 15.00992 37930 ft 475 kts 317°
2026-05-06 21:43 45.40307 14.95305 37911 ft 475 kts 317°
2026-05-06 21:43 45.45566 14.89578 37907 ft 476 kts 317°
2026-05-06 21:44 45.49943 14.84798 37945 ft 477 kts 317°
2026-05-06 21:44 45.55221 14.79021 37952 ft 478 kts 317°
2026-05-06 21:45 45.60503 14.73233 37927 ft 478 kts 317°
2026-05-06 21:45 45.65790 14.67421 37955 ft 480 kts 317°
2026-05-06 21:46 45.71066 14.61600 37963 ft 483 kts 317°
2026-05-06 21:46 45.76462 14.55629 37971 ft 499 kts 317°
2026-05-06 21:47 45.81984 14.49516 37966 ft 501 kts 317°
2026-05-06 21:47 45.87499 14.43396 37942 ft 501 kts 317°
2026-05-06 21:48 45.93020 14.37250 37947 ft 502 kts 317°
2026-05-06 21:48 45.98531 14.31098 37944 ft 502 kts 317°
2026-05-06 21:49 46.04018 14.24959 37945 ft 503 kts 318°
2026-05-06 21:49 46.09850 14.19286 37942 ft 509 kts 328°
2026-05-06 21:50 46.16373 14.15192 37938 ft 513 kts 335°
2026-05-06 21:50 46.23010 14.11426 37937 ft 513 kts 334°
2026-05-06 21:51 46.29653 14.07646 37941 ft 514 kts 335°
2026-05-06 21:51 46.36268 14.03893 37933 ft 514 kts 335°
2026-05-06 21:52 46.42933 14.00107 37928 ft 514 kts 335°
2026-05-06 21:52 46.49589 13.96317 37929 ft 514 kts 334°
2026-05-06 21:53 46.56269 13.92502 37933 ft 516 kts 334°
2026-05-06 21:53 46.62910 13.88699 37941 ft 515 kts 334°
2026-05-06 21:54 46.69581 13.84868 37936 ft 516 kts 334°
2026-05-06 21:54 46.76276 13.81014 37926 ft 515 kts 334°
2026-05-06 21:55 46.82944 13.77163 37938 ft 516 kts 334°
2026-05-06 21:55 46.89575 13.73324 37927 ft 517 kts 334°
2026-05-06 21:56 46.96284 13.69433 37933 ft 518 kts 334°
2026-05-06 21:56 47.02933 13.65569 37925 ft 505 kts 334°
2026-05-06 21:57 47.09410 13.61794 37152 ft 499 kts 333°
2026-05-06 21:57 47.12655 13.59893 36223 ft 503 kts 333°
2026-05-06 21:57 47.15877 13.58001 35165 ft 508 kts 332°
2026-05-06 21:58 47.19183 13.56062 34032 ft 513 kts 332°
2026-05-06 21:58 47.22534 13.54090 32738 ft 520 kts 332°
2026-05-06 21:58 47.25874 13.52127 31856 ft 517 kts 332°
2026-05-06 21:58 47.29194 13.50178 31268 ft 507 kts 332°
2026-05-06 21:59 47.32428 13.48283 30926 ft 493 kts 332°
2026-05-06 21:59 47.35579 13.46435 30462 ft 483 kts 331°
2026-05-06 21:59 47.38703 13.44585 29519 ft 484 kts 331°
2026-05-06 21:59 47.41826 13.42731 28820 ft 479 kts 332°
2026-05-06 22:00 47.44888 13.40920 28451 ft 469 kts 332°
2026-05-06 22:00 47.47866 13.39026 27824 ft 459 kts 326°
2026-05-06 22:00 47.50545 13.36716 27216 ft 448 kts 319°
2026-05-06 22:00 47.52996 13.33978 26604 ft 437 kts 313°
2026-05-06 22:01 47.55321 13.31111 26041 ft 429 kts 314°
2026-05-06 22:01 47.57629 13.28322 25450 ft 426 kts 314°
2026-05-06 22:01 47.59926 13.25551 24852 ft 423 kts 314°
2026-05-06 22:01 47.62175 13.22828 24288 ft 418 kts 314°
2026-05-06 22:02 47.64420 13.20101 23710 ft 416 kts 314°
2026-05-06 22:02 47.66649 13.17387 23072 ft 414 kts 314°
2026-05-06 22:02 47.68864 13.14686 22474 ft 409 kts 314°
2026-05-06 22:02 47.71053 13.12012 21909 ft 405 kts 314°
2026-05-06 22:03 47.73218 13.09367 21329 ft 402 kts 314°
2026-05-06 22:03 47.75368 13.06734 20762 ft 398 kts 314°
2026-05-06 22:03 47.77498 13.04123 20189 ft 396 kts 315°
2026-05-06 22:03 47.79615 13.01526 19603 ft 393 kts 315°
2026-05-06 22:04 47.81715 12.98946 19041 ft 390 kts 315°
2026-05-06 22:04 47.83809 12.96370 18478 ft 388 kts 315°
2026-05-06 22:04 47.85862 12.93843 17866 ft 386 kts 315°
2026-05-06 22:04 47.87951 12.91271 17288 ft 382 kts 315°
2026-05-06 22:05 47.89959 12.88797 16729 ft 378 kts 315°
2026-05-06 22:05 47.91973 12.86311 16181 ft 373 kts 315°
2026-05-06 22:05 47.93946 12.83841 15623 ft 368 kts 313°
2026-05-06 22:05 47.95683 12.81109 15087 ft 359 kts 304°
2026-05-06 22:06 47.97105 12.78094 14551 ft 351 kts 296°
2026-05-06 22:06 47.98317 12.74968 14036 ft 346 kts 296°
2026-05-06 22:06 47.99539 12.71888 13503 ft 343 kts 296°
2026-05-06 22:06 48.00757 12.68853 12992 ft 337 kts 296°
2026-05-06 22:07 48.01949 12.65878 12502 ft 332 kts 296°
2026-05-06 22:07 48.03128 12.62924 12016 ft 328 kts 296°
2026-05-06 22:07 48.04282 12.60019 11531 ft 324 kts 296°
2026-05-06 22:07 48.05429 12.57125 11047 ft 321 kts 296°
2026-05-06 22:08 48.06565 12.54260 10587 ft 318 kts 296°
2026-05-06 22:08 48.07679 12.51471 10231 ft 312 kts 297°
2026-05-06 22:08 48.08768 12.48757 10092 ft 298 kts 297°
2026-05-06 22:08 48.09813 12.46152 9953 ft 287 kts 296°
2026-05-06 22:09 48.10828 12.43608 9766 ft 283 kts 296°
2026-05-06 22:09 48.11831 12.41082 9631 ft 282 kts 296°
2026-05-06 22:09 48.12834 12.38553 9329 ft 284 kts 296°
2026-05-06 22:09 48.13883 12.36074 8999 ft 281 kts 306°
2026-05-06 22:10 48.15414 12.34250 8698 ft 284 kts 330°
2026-05-06 22:10 48.17305 12.33361 8390 ft 284 kts 341°
2026-05-06 22:10 48.19199 12.32643 8080 ft 279 kts 340°
2026-05-06 22:10 48.21058 12.31906 7768 ft 274 kts 340°
2026-05-06 22:11 48.22868 12.31175 7461 ft 270 kts 340°
2026-05-06 22:11 48.24671 12.30445 7150 ft 266 kts 339°
2026-05-06 22:11 48.26447 12.29726 6836 ft 263 kts 339°
2026-05-06 22:11 48.28206 12.29015 6545 ft 260 kts 339°
2026-05-06 22:12 48.29945 12.28312 6230 ft 257 kts 339°
2026-05-06 22:12 48.31660 12.27620 6056 ft 249 kts 339°
2026-05-06 22:12 48.33293 12.26965 5874 ft 236 kts 339°
2026-05-06 22:12 48.34812 12.26357 5834 ft 222 kts 339°
2026-05-06 22:13 48.36270 12.25767 5767 ft 213 kts 338°
2026-05-06 22:13 48.37674 12.25188 5702 ft 204 kts 335°
2026-05-06 22:13 48.38819 12.24144 5660 ft 183 kts 307°
2026-05-06 22:13 48.39404 12.22570 5583 ft 161 kts 284°
2026-05-06 22:14 48.39564 12.21016 5435 ft 141 kts 272°
2026-05-06 22:14 48.39546 12.19647 5193 ft 126 kts 268°
2026-05-06 22:14 48.39470 12.18328 4849 ft 128 kts 266°
2026-05-06 22:14 48.39370 12.16979 4885 ft 132 kts 265°
2026-05-06 22:15 48.39267 12.15609 4879 ft 134 kts 265°
2026-05-06 22:15 48.39159 12.14215 4886 ft 134 kts 265°
2026-05-06 22:15 48.39052 12.12805 4885 ft 140 kts 265°
2026-05-06 22:15 48.38938 12.11328 4891 ft 143 kts 265°
2026-05-06 22:16 48.38823 12.09836 4888 ft 144 kts 264°
2026-05-06 22:16 48.38708 12.08340 4823 ft 144 kts 265°
2026-05-06 22:16 48.38593 12.06855 4664 ft 142 kts 265°
2026-05-06 22:16 48.38479 12.05370 4446 ft 143 kts 265°
2026-05-06 22:17 48.38365 12.03893 4270 ft 142 kts 265°
2026-05-06 22:17 48.38255 12.02451 4078 ft 140 kts 265°
2026-05-06 22:17 48.38143 12.00997 3900 ft 137 kts 264°
2026-05-06 22:17 48.38037 11.99639 3800 ft 125 kts 265°
2026-05-06 22:18 48.37939 11.98351 3653 ft 124 kts 265°
2026-05-06 22:18 48.37841 11.97074 3497 ft 123 kts 265°
2026-05-06 22:18 48.37742 11.95799 3340 ft 122 kts 265°
2026-05-06 22:18 48.37645 11.94530 3185 ft 122 kts 265°
2026-05-06 22:19 48.37548 11.93277 3015 ft 122 kts 265°
2026-05-06 22:19 48.37449 11.91991 2849 ft 122 kts 264°
2026-05-06 22:19 48.37352 11.90739 2687 ft 122 kts 264°
2026-05-06 22:19 48.37255 11.89460 2521 ft 124 kts 264°
2026-05-06 22:20 48.37163 11.88147 2295 ft 130 kts 263°
2026-05-06 22:20 48.37070 11.86795 2150 ft 130 kts 261°
2026-05-06 22:20 48.36952 11.85441 1928 ft 131 kts 260°
2026-05-06 22:20 48.36839 11.84112 1720 ft 128 kts 262°
2026-05-06 22:21 48.36739 11.82787 1576 ft 123 kts 261°
2026-05-06 22:21 48.36643 11.81557 1463 ft 115 kts 261°
2026-05-06 22:21 48.36573 11.80592 1466 ft 63 kts 263°
2026-05-06 22:21 48.36544 11.80234 1469 ft 25 kts 263°
2026-05-06 22:22 48.36522 11.79938 1459 ft 26 kts 260°
2026-05-06 22:22 48.36460 11.79726 1459 ft 12 kts 235°
2026-05-06 22:22 48.36455 11.79717 1459 ft 0 kts 235°
2026-05-06 22:22 48.36448 11.79701 1470 ft 4 kts 235°
2026-05-06 22:23 48.36426 11.79655 1459 ft 7 kts 234°
2026-05-06 22:23 48.36396 11.79591 1465 ft 8 kts 234°
2026-05-06 22:23 48.36361 11.79519 1460 ft 9 kts 233°
2026-05-06 22:23 48.36321 11.79440 1461 ft 10 kts 232°
2026-05-06 22:24 48.36274 11.79349 1464 ft 12 kts 232°
2026-05-06 22:24 48.36230 11.79262 1461 ft 2 kts 222°
2026-05-06 22:24 48.36222 11.79255 1461 ft 1 kts 190°
2026-05-06 22:24 48.36213 11.79257 1461 ft 3 kts 152°
2026-05-06 22:25 48.36163 11.79298 1463 ft 12 kts 161°
2026-05-06 22:25 48.36052 11.79326 1472 ft 18 kts 174°
2026-05-06 22:25 48.35939 11.79352 1464 ft 16 kts 163°
2026-05-06 22:25 48.35881 11.79376 1468 ft 7 kts 177°
2026-05-06 22:26 48.35852 11.79349 1463 ft 6 kts 237°
2026-05-06 22:26 48.35842 11.79287 1468 ft 7 kts 269°
2026-05-06 22:26 48.35841 11.79245 1469 ft 0 kts 264°